2023/07/30 00:00:00, 2.2,22.1
2023/07/30 00:10:00, 2.0,21.9
2023/07/30 00:20:00, 4.7,22.0
2023/07/30 00:30:00, 3.1,22.2
2023/07/30 00:40:00, 1.7,21.5
2023/07/30 00:50:00, 1.4,21.4
2023/07/30 01:00:00, 1.5,21.3
2023/07/30 01:10:00, 2.2,21.5
2023/07/30 01:20:00, 4.2,20.9
2023/07/30 01:30:00, 7.5,21.2
2023/07/30 01:40:00, 8.9,21.2
2023/07/30 01:50:00, 9.6,21.4
2023/07/30 02:00:00,10.6,21.1
2023/07/30 02:10:00,10.8,20.8
2023/07/30 02:20:00,10.8,20.9
2023/07/30 02:30:00, 6.9,20.9
2023/07/30 02:40:00, 0.5,21.0
2023/07/30 02:50:00, 0.5,21.2
2023/07/30 03:00:00, 1.5,21.6
2023/07/30 03:10:00, 3.2,21.0
2023/07/30 03:20:00, 4.1,20.8
2023/07/30 03:30:00, 5.7,20.8
2023/07/30 03:40:00, 8.2,20.7
2023/07/30 03:50:00, 5.5,20.6
2023/07/30 04:00:00, 6.5,20.9
2023/07/30 04:10:00, 6.3,20.6
2023/07/30 04:20:00, 6.6,21.1
2023/07/30 04:30:00, 7.0,20.8
2023/07/30 04:40:00, 7.3,21.3
2023/07/30 04:50:00, 6.8,20.7
2023/07/30 05:00:00, 6.2,20.8
2023/07/30 05:10:00, 5.4,21.0
2023/07/30 05:20:00, 5.3,21.0
2023/07/30 05:30:00, 7.6,21.2
2023/07/30 05:40:00,10.1,21.1
2023/07/30 05:50:00,10.2,21.3
2023/07/30 06:00:00,17.1,22.2
2023/07/30 06:10:00,22.0,23.0
2023/07/30 06:20:00,21.2,23.6
2023/07/30 06:30:00,20.7,24.0
2023/07/30 06:40:00,23.1,24.3
2023/07/30 06:50:00,22.9,25.0
2023/07/30 07:00:00,22.7,25.6
2023/07/30 07:10:00,23.1,26.5
2023/07/30 07:20:00,21.6,27.8
2023/07/30 07:30:00,20.8,27.5
2023/07/30 07:40:00,21.3,28.0
2023/07/30 07:50:00,21.6,28.4
2023/07/30 08:00:00,22.1,28.9
2023/07/30 08:10:00,22.9,29.5
2023/07/30 08:20:00,23.7,29.8
2023/07/30 08:30:00,23.9,30.4
2023/07/30 08:40:00,22.7,30.4
2023/07/30 08:50:00,16.3,30.7
2023/07/30 09:00:00,19.7,31.4
2023/07/30 09:10:00,17.2,31.6
2023/07/30 09:20:00, 0.5,32.1
2023/07/30 09:30:00, 0.4,32.9
2023/07/30 09:40:00, 0.5,32.7
2023/07/30 09:50:00, 0.5,33.3
2023/07/30 10:00:00, 0.5,33.5
2023/07/30 10:10:00, 0.4,33.4
2023/07/30 10:20:00, 0.4,32.7
2023/07/30 10:30:00, 0.4,32.8
2023/07/30 10:40:00, 0.4,31.6
2023/07/30 10:50:00, 0.3,32.1
2023/07/30 11:00:00, 0.3,32.7
2023/07/30 11:10:00, 0.4,33.3
2023/07/30 11:20:00, 0.4,34.3
2023/07/30 11:30:00, 0.4,34.8
2023/07/30 11:40:00, 0.4,35.3
2023/07/30 11:50:00, 0.4,35.7
2023/07/30 12:00:00, 0.4,35.7
2023/07/30 12:10:00, 0.4,35.6
2023/07/30 12:20:00, 0.4,36.0
2023/07/30 12:30:00, 0.4,36.2
2023/07/30 12:40:00, 0.4,34.9
2023/07/30 12:50:00, 0.4,35.6
2023/07/30 13:00:00, 0.4,35.8
2023/07/30 13:10:00, 0.4,35.5
2023/07/30 13:20:00, 0.3,35.7
2023/07/30 13:30:00, 0.3,35.8
2023/07/30 13:40:00, 0.4,35.8
2023/07/30 13:50:00, 0.4,35.0
2023/07/30 14:00:00, 0.4,35.3
2023/07/30 14:10:00, 0.5,35.0
2023/07/30 14:20:00, 0.4,35.6
2023/07/30 14:30:00, 0.4,35.6
2023/07/30 14:40:00, 0.4,35.6
2023/07/30 14:50:00, 0.4,36.1
2023/07/30 15:00:00, 0.3,36.0
2023/07/30 15:10:00, 0.4,35.8
2023/07/30 15:20:00, 0.4,35.6
2023/07/30 15:30:00, 0.4,35.5
2023/07/30 15:40:00, 0.4,35.3
2023/07/30 15:50:00, 0.4,34.7
2023/07/30 16:00:00, 0.5,34.1
2023/07/30 16:10:00, 0.5,34.0
2023/07/30 16:20:00, 0.5,33.8
2023/07/30 16:30:00, 0.4,34.1
2023/07/30 16:40:00, 0.4,34.2
2023/07/30 16:50:00, 0.4,34.4
2023/07/30 17:00:00, 0.4,33.5
2023/07/30 17:10:00, 0.4,32.8
2023/07/30 17:20:00, 0.4,32.9
2023/07/30 17:30:00, 0.4,32.1
2023/07/30 17:40:00, 0.4,32.4
2023/07/30 17:50:00, 0.4,30.8
2023/07/30 18:00:00, 0.4,30.3
2023/07/30 18:10:00, 0.4,30.0
2023/07/30 18:20:00, 0.4,29.2
2023/07/30 18:30:00, 0.4,28.6
2023/07/30 18:40:00, 0.2,28.1
2023/07/30 18:50:00, 0.2,27.8
2023/07/30 19:00:00, 0.2,27.7
2023/07/30 19:10:00, 0.2,26.9
2023/07/30 19:20:00, 0.3,26.4
2023/07/30 19:30:00, 0.4,26.2
2023/07/30 19:40:00, 0.5,26.1
2023/07/30 19:50:00, 0.5,25.9
2023/07/30 20:00:00, 0.4,25.6
2023/07/30 20:10:00, 0.4,25.4
2023/07/30 20:20:00, 0.4,25.4
2023/07/30 20:30:00, 0.4,25.1
2023/07/30 20:40:00, 0.4,25.3
2023/07/30 20:50:00, 0.3,25.0
2023/07/30 21:00:00, 0.4,24.7
2023/07/30 21:10:00, 0.4,24.3
2023/07/30 21:20:00, 0.3,24.2
2023/07/30 21:30:00, 0.3,24.3
2023/07/30 21:40:00, 0.2,24.0
2023/07/30 21:50:00, 0.1,24.0
2023/07/30 22:00:00, 0.1,23.7
2023/07/30 22:10:00, 0.1,23.9
2023/07/30 22:20:00, 0.1,23.7
2023/07/30 22:30:00, 0.2,23.4
2023/07/30 22:40:00, 0.2,23.4
2023/07/30 22:50:00, 0.2,23.2
2023/07/30 23:00:00, 0.2,23.1
2023/07/30 23:10:00, 0.3,22.9
2023/07/30 23:20:00, 0.3,22.6
2023/07/30 23:30:00, 0.3,22.4
2023/07/30 23:40:00, 0.5,22.5
2023/07/30 23:50:00, 0.5,22.8
